"Pseudo-MPEC" for ST26G80

Created 2026 Jul 28 21:35:14 UT using Find_Orb

Click here for an explanation of pseudo-MPECs

 
 Astrometry: 
     ST26G80* C2026 07 19.43083522 58 09.419+00 51 31.97   ~7NF5 19.12GVNEOCPU68
     ST26G80  C2026 07 19.43417622 58 21.852+00 47 19.25   ~7NF5 19.12GVNEOCPU68
     ST26G80  C2026 07 19.46857223 00 27.569+00 04 39.50   ~7NF5 18.58GVNEOCPU74
     ST26G80  C2026 07 19.46977523 00 31.926+00 03 11.76   ~7NF5 18.58GVNEOCPU74
     ST26G80  C2026 07 19.48134923 01 13.306-00 10 54.22   ~7NF5 18.77GVNEOCPU74
     ST26G80  C2026 07 19.48469023 01 25.462-00 14 57.75   ~7NF5 18.77GVNEOCPU74

Station data:
(U68) JPL SynTrack Robotic Telescope, Auberry  (N37.070387 W119.412990)
   US/California.  Observers N. Saini, C. Zhai, R. Trahan, M. Zhan, M. Shao.
   0.28-m f/2.2 Schmidt + CCD.
(U74) JPL SynTrack Robotic Telescope 2, Auberry  (N37.070341 W119.412800)
   US/California.  Observers N. Saini, C. Zhai, R. Trahan, M. Zhan, M. Shao.
   0.36-m f/2.2 Schmidt.

Orbital elements:  ST26G80
   Perigee 2026 Jul 18.413678 +/- 0.0407 TT =  9:55:41.8 (JD 2461239.913678)
Epoch 2026 Jul 19.0 TT = JDT 2461240.5                           AutoNEOCP
q540904.7169 +/- 957000             (J2000 equator)
H   28.90 G 0.15                    Peri.  140.264564 +/- 4.2
                                    Node   165.468855 +/- 0.58
e  30.36772113 +/- 162              Incl.   49.224424 +/- 7
From 6 observations 2026 July 19 (77.6 min); mean residual 0".75
Residuals in arcseconds: 
260719 U68  .11-  .35+    260719 U74  .03-  .38-    260719 U74  1.9-  .40+    
260719 U68  .15+  .36-    260719 U74  .29+  .25+    260719 U74  1.6+  .25-    

Ephemerides (geocentric):
Date (UTC) HH   RA             Dec           delta  r     elong  mag " sig PA
---- --------  ------------   ------------  ------ ------ -----  --- --------
2026 07 28 22  01 11 43.238   -32 11 46.22  .02865 1.0284 116.4 23.5 9455  78
2026 07 28 23  01 11 48.900   -32 12 53.62  .02876 1.0284 116.4 23.5 9462  78
2026 07 29 00  01 11 54.512   -32 14 00.49  .02887 1.0285 116.5 23.5 9468  78
2026 07 29 01  01 12 00.076   -32 15 06.85  .02898 1.0286 116.5 23.5 9475  78
2026 07 29 02  01 12 05.591   -32 16 12.70  .02909 1.0286 116.5 23.5 9482  78
2026 07 29 03  01 12 11.058   -32 17 18.04  .02921 1.0287 116.5 23.5 9488  78
2026 07 29 04  01 12 16.478   -32 18 22.89  .02932 1.0287 116.5 23.5 9495  78
2026 07 29 05  01 12 21.852   -32 19 27.24  .02943 1.0288 116.5 23.5 9502  78
2026 07 29 06  01 12 27.178   -32 20 31.10  .02954 1.0288 116.5 23.5 9508  78
2026 07 29 07  01 12 32.459   -32 21 34.49  .02965 1.0289 116.5 23.5 9515  78
2026 07 29 08  01 12 37.695   -32 22 37.39  .02976 1.0289 116.6 23.5 9521  78
2026 07 29 09  01 12 42.885   -32 23 39.83  .02987 1.0290 116.6 23.5 9528  78
2026 07 29 10  01 12 48.030   -32 24 41.80  .02998 1.0290 116.6 23.6 9534  78
2026 07 29 11  01 12 53.132   -32 25 43.32  .03009 1.0291 116.6 23.6 9540  78
2026 07 29 12  01 12 58.189   -32 26 44.38  .03020 1.0291 116.6 23.6 9547  78
2026 07 29 13  01 13 03.204   -32 27 44.99  .03031 1.0292 116.6 23.6 9553  78
2026 07 29 14  01 13 08.175   -32 28 45.16  .03042 1.0292 116.6 23.6 9559  78
2026 07 29 15  01 13 13.104   -32 29 44.89  .03054 1.0293 116.7 23.6 9566  78
2026 07 29 16  01 13 17.990   -32 30 44.19  .03065 1.0294 116.7 23.6 9572  78
2026 07 29 17  01 13 22.835   -32 31 43.06  .03076 1.0294 116.7 23.6 9578  78
2026 07 29 18  01 13 27.639   -32 32 41.50  .03087 1.0295 116.7 23.6 9584  78
2026 07 29 19  01 13 32.401   -32 33 39.53  .03098 1.0295 116.7 23.6 9590  78
2026 07 29 20  01 13 37.123   -32 34 37.15  .03109 1.0296 116.7 23.6 9597  78
2026 07 29 21  01 13 41.805   -32 35 34.35  .03120 1.0296 116.7 23.6 9603  78
2026 07 29 22  01 13 46.447   -32 36 31.15  .03131 1.0297 116.8 23.6 9609  78
2026 07 29 23  01 13 51.049   -32 37 27.55  .03142 1.0297 116.8 23.6 9615  78
2026 07 30 00  01 13 55.613   -32 38 23.56  .03153 1.0298 116.8 23.7 9621  78
2026 07 30 01  01 14 00.137   -32 39 19.17  .03164 1.0298 116.8 23.7 9627  78
2026 07 30 02  01 14 04.623   -32 40 14.40  .03175 1.0299 116.8 23.7 9633  78
2026 07 30 03  01 14 09.071   -32 41 09.25  .03187 1.0300 116.8 23.7 9639  78
2026 07 30 04  01 14 13.481   -32 42 03.72  .03198 1.0300 116.9 23.7 9645  78
2026 07 30 05  01 14 17.854   -32 42 57.81  .03209 1.0301 116.9 23.7 9650  78
2026 07 30 06  01 14 22.189   -32 43 51.53  .03220 1.0301 116.9 23.7 9656  78
2026 07 30 07  01 14 26.488   -32 44 44.89  .03231 1.0302 116.9 23.7 9662  78
2026 07 30 08  01 14 30.751   -32 45 37.89  .03242 1.0302 116.9 23.7 9668  78
2026 07 30 09  01 14 34.977   -32 46 30.53  .03253 1.0303 116.9 23.7 9674  78
2026 07 30 10  01 14 39.167   -32 47 22.81  .03264 1.0304 116.9 23.7 9679  78
2026 07 30 11  01 14 43.322   -32 48 14.75  .03275 1.0304 117.0 23.7 9685  78
2026 07 30 12  01 14 47.442   -32 49 06.33  .03286 1.0305 117.0 23.7 9691  78
2026 07 30 13  01 14 51.527   -32 49 57.58  .03297 1.0305 117.0 23.7 9696  78
2026 07 30 14  01 14 55.577   -32 50 48.48  .03308 1.0306 117.0 23.8 9702  78
2026 07 30 15  01 14 59.593   -32 51 39.06  .03319 1.0306 117.0 23.8 9708  78
2026 07 30 16  01 15 03.574   -32 52 29.29  .03330 1.0307 117.0 23.8 9713  78
2026 07 30 17  01 15 07.522   -32 53 19.20  .03342 1.0307 117.1 23.8 9719  78
2026 07 30 18  01 15 11.437   -32 54 08.79  .03353 1.0308 117.1 23.8 9724  78
2026 07 30 19  01 15 15.318   -32 54 58.05  .03364 1.0309 117.1 23.8 9730  78
2026 07 30 20  01 15 19.167   -32 55 47.00  .03375 1.0309 117.1 23.8 9735  78
2026 07 30 21  01 15 22.982   -32 56 35.63  .03386 1.0310 117.1 23.8 9741  78